CW1569 Weather Reports


Display with metric or nautical units.
time (UTC)temp
F
wind
direction
speed
MPH
gust
MPH
rain 1hr
in
rain 24hr
in
rain mn
in
humidity
%
barometer
mb
20260508082325 39 360 0.0 0.0 0.01 0.02 0.02 94 1008.3
20260508081835 39 360 0.0 0.0 0.01 0.02 0.02 94 1008.3
20260508081325 39 360 0.0 0.0 0.01 0.02 0.02 94 1008.4
20260508080834 39 360 0.0 0.0 0.01 0.02 0.02 94 1008.5
20260508080322 39 360 0.0 0.0 0.01 0.02 0.02 94 1008.5
20260508075831 39 360 0.0 0.0 0.01 0.02 0.02 94 1008.6
20260508075321 39 360 0.0 0.0 0.01 0.02 0.02 94 1008.5
20260508074828 39 360 0.0 0.0 0.01 0.02 0.02 94 1008.5
20260508074338 39 360 0.0 0.0 0.01 0.02 0.02 93 1008.5
20260508073826 39 360 0.0 0.0 0.01 0.02 0.02 93 1008.5
20260508073336 39 360 0.0 0.0 0.01 0.02 0.02 93 1008.5
20260508072823 39 360 0.0 0.0 0.00 0.01 0.01 93 1008.5
20260508072334 40 360 0.0 0.0 0.00 0.01 0.01 94 1008.6
20260508071823 39 360 0.0 0.0 0.00 0.01 0.01 94 1008.7
20260508071331 39 360 0.0 0.0 0.00 0.01 0.01 93 1008.9
20260508070837 39 360 0.0 0.0 0.00 0.01 0.01 93 1009.0
20260508070327 39 360 0.0 0.0 0.00 0.01 0.01 93 1009.0
20260508065837 39 360 0.0 0.0 0.00 0.01 0.01 93 1009.1
20260508065326 39 360 0.0 0.0 0.00 0.01 0.01 93 1009.0
20260508064835 39 360 0.0 0.0 0.00 0.01 0.01 93 1009.0
20260508064346 39 360 0.0 0.0 0.00 0.01 0.01 93 1009.0
20260508063854 40 360 0.0 0.0 0.00 0.01 0.01 93 1009.0
20260508063323 40 360 0.0 0.0 0.00 0.01 0.01 93 1009.0
20260508062831 40 360 0.0 0.0 0.00 0.01 0.01 93 1008.9
20260508062322 40 360 0.0 0.0 0.00 0.01 0.01 93 1008.9
20260508061831 40 360 0.0 0.0 0.00 0.01 0.01 92 1008.9
20260508061341 40 360 0.0 2.0 0.00 0.01 0.01 92 1008.9
20260508060831 40 360 0.0 2.0 0.00 0.01 0.01 92 1008.9
20260508060340 40 360 1.0 2.0 0.00 0.01 0.01 92 1008.8
20260508055827 40 360 0.0 4.0 0.00 0.01 0.01 92 1008.8
20260508055336 40 360 1.0 4.0 0.00 0.01 0.01 92 1008.7
20260508054826 41 360 2.0 4.0 0.00 0.01 0.01 92 1008.7
20260508054331 41 360 2.0 4.0 0.00 0.01 0.01 92 1008.7
20260508053839 41 360 2.0 4.0 0.00 0.01 0.01 92 1008.7
20260508053328 41 360 2.0 4.0 0.00 0.01 0.01 92 1008.7
20260508052837 41 360 3.0 4.0 0.00 0.01 0.01 92 1008.7
20260508052327 41 360 3.0 5.0 0.00 0.01 0.01 92 1008.8
20260508051836 41 360 3.0 5.0 0.00 0.01 0.01 92 1008.7
20260508051327 40 360 1.0 4.0 0.00 0.01 0.01 91 1008.6
20260508050833 41 360 0.0 0.0 0.00 0.01 0.01 91 1008.6
20260508050322 41 360 0.0 0.0 0.00 0.01 0.01 91 1008.5
20260508045859 41 360 0.0 0.0 0.00 0.01 0.01 91 1008.5
20260508045327 41 360 0.0 0.0 0.00 0.01 0.01 90 1008.5
20260508044836 41 360 0.0 0.0 0.00 0.01 0.01 90 1008.4
20260508044327 41 360 0.0 0.0 0.00 0.01 0.01 90 1008.5
20260508043835 42 360 0.0 2.0 0.00 0.01 0.01 90 1008.4
20260508043324 42 360 0.0 3.0 0.00 0.01 0.01 90 1008.3
20260508042833 42 360 1.0 4.0 0.00 0.01 0.01 90 1008.3
20260508042322 42 360 1.0 4.0 0.00 0.01 0.01 89 1008.3
20260508041831 42 360 1.0 4.0 0.00 0.01 0.01 89 1008.3
20260508041341 42 360 0.0 0.0 0.00 0.01 0.01 89 1008.3
20260508040828 42 360 0.0 0.0 0.00 0.01 0.01 89 1008.3
20260508040337 43 360 0.0 0.0 0.00 0.01 0.01 89 1008.3
20260508035823 43 360 0.0 3.0 0.00 0.01 0.01 88 1008.2
20260508035328 43 360 0.0 3.0 0.00 0.01 0.01 88 1008.2
20260508034838 43 360 2.0 5.0 0.00 0.01 0.01 88 1008.1
20260508034329 43 360 2.0 6.0 0.00 0.01 0.01 88 1008.3
20260508033837 43 360 4.0 6.0 0.00 0.01 0.01 87 1008.1
20260508033325 43 360 3.0 5.0 0.00 0.01 0.01 87 1008.1
20260508032835 43 360 0.0 0.0 0.00 0.01 0.01 86 1008.1
20260508032325 44 360 0.0 0.0 0.00 0.01 0.01 86 1008.1
20260508031834 44 360 0.0 0.0 0.00 0.01 0.01 86 1008.0
20260508031327 44 360 0.0 3.0 0.00 0.01 0.01 86 1008.1
20260508030833 44 360 2.0 3.0 0.00 0.01 0.01 86 1008.1
20260508030342 44 360 2.0 4.0 0.00 0.01 0.01 86 1008.0
20260508025830 44 360 2.0 5.0 0.00 0.01 0.01 86 1008.1
20260508025339 44 360 3.0 5.0 0.00 0.01 0.01 85 1007.9
20260508024828 44 360 0.0 0.0 0.00 0.01 0.01 85 1008.0
20260508024339 44 360 0.0 0.0 0.00 0.01 0.01 85 1007.9
20260508023827 45 360 0.0 0.0 0.00 0.01 0.01 85 1007.8
20260508023335 45 360 0.0 0.0 0.00 0.01 0.01 85 1007.7
20260508022824 45 360 0.0 0.0 0.00 0.01 0.01 84 1007.7
20260508022333 45 360 0.0 0.0 0.00 0.01 0.01 83 1007.6
20260508021843 45 360 0.0 0.0 0.00 0.01 0.01 83 1007.5
20260508021329 46 360 0.0 2.0 0.00 0.01 0.01 83 1007.5
20260508020838 46 360 0.0 2.0 0.00 0.01 0.01 83 1007.4
20260508020327 46 360 0.0 3.0 0.00 0.01 0.01 83 1007.3
20260508015837 46 360 1.0 3.0 0.00 0.01 0.01 82 1007.3
20260508015327 46 360 1.0 6.0 0.00 0.01 0.01 82 1007.3
20260508014903 46 360 3.0 6.0 0.00 0.01 0.01 82 1007.3
20260508014329 46 360 1.0 6.0 0.00 0.01 0.01 82 1007.2
20260508013836 47 360 1.0 6.0 0.00 0.01 0.01 81 1007.0
20260508013325 47 360 3.0 8.0 0.00 0.01 0.01 81 1007.0
20260508012834 47 360 4.0 8.0 0.00 0.01 0.01 81 1007.0
20260508012343 47 360 5.0 7.0 0.00 0.01 0.01 80 1006.9
20260508011850 47 360 1.0 3.0 0.00 0.01 0.01 80 1006.7
20260508011339 48 360 2.0 3.0 0.00 0.01 0.01 80 1006.7
20260508010824 48 360 1.0 4.0 0.00 0.01 0.01 79 1006.6
20260508010400 48 360 2.0 4.0 0.00 0.01 0.01 79 1006.6
20260508005829 48 360 0.0 2.0 0.00 0.01 0.01 79 1006.5
20260508005336 48 360 1.0 3.0 0.00 0.01 0.01 78 1006.5
20260508004824 49 360 1.0 5.0 0.00 0.01 0.01 78 1006.5
20260508004332 49 360 2.0 6.0 0.00 0.01 0.01 77 1006.4
20260508003840 49 360 2.0 6.0 0.00 0.01 0.01 77 1006.4
20260508003331 49 360 3.0 5.0 0.00 0.01 0.01 77 1006.4
20260508002840 49 360 3.0 5.0 0.00 0.01 0.01 77 1006.5
20260508002330 49 360 3.0 5.0 0.00 0.01 0.01 76 1006.4
20260508001821 50 360 3.0 7.0 0.00 0.01 0.01 76 1006.3
20260508001331 50 360 3.0 7.0 0.00 0.01 0.01 76 1006.3
20260508000839 50 360 3.0 5.0 0.00 0.01 0.01 76 1006.2
20260508000327 50 360 2.0 5.0 0.00 0.01 0.01 77 1006.2
20260507235837 50 360 1.0 5.0 0.00 0.01 0.01 77 1006.3
20260507235328 50 360 3.0 8.0 0.00 0.01 0.01 77 1006.2
20260507234839 50 360 2.0 8.0 0.00 0.01 0.01 76 1006.4
20260507234330 51 360 2.0 7.0 0.00 0.01 0.01 77 1006.3
20260507233838 51 360 3.0 7.0 0.00 0.01 0.01 76 1006.3
20260507233347 51 360 3.0 6.0 0.00 0.01 0.01 75 1006.4
20260507232857 51 360 2.0 10.0 0.00 0.01 0.01 75 1006.6
20260507232325 51 360 4.0 12.0 0.00 0.01 0.01 74 1006.7
20260507231834 50 360 5.0 14.0 0.00 0.01 0.01 74 1006.8
20260507231326 50 360 7.0 14.0 0.00 0.01 0.01 73 1006.8
20260507230833 50 360 8.0 14.0 0.00 0.01 0.01 72 1006.8
20260507230322 51 360 8.0 14.0 0.00 0.01 0.01 71 1006.8
20260507225853 51 360 7.0 14.0 0.00 0.01 0.01 70 1006.8
20260507225321 51 360 4.0 13.0 0.00 0.01 0.01 70 1006.8
20260507224831 51 360 7.0 14.0 0.00 0.01 0.01 68 1006.9
20260507224322 51 360 10.0 14.0 0.00 0.01 0.01 67 1006.9
20260507223855 51 360 7.0 20.0 0.00 0.01 0.01 68 1006.8
20260507223322 52 360 7.0 18.0 0.00 0.01 0.01 68 1006.8
20260507222858 52 360 10.0 19.0 0.00 0.01 0.01 66 1006.9
20260507222345 53 360 10.0 19.0 0.00 0.01 0.01 63 1006.8
20260507221855 55 360 4.0 10.0 0.00 0.01 0.01 66 1006.8
20260507221325 55 360 5.0 14.0 0.00 0.01 0.01 65 1006.5
20260507220831 55 360 9.0 14.0 0.00 0.01 0.01 65 1006.5
20260507220321 55 360 6.0 13.0 0.00 0.01 0.01 67 1006.6
20260507215831 55 360 8.0 12.0 0.00 0.01 0.01 67 1006.6
20260507215320 54 360 6.0 11.0 0.00 0.01 0.01 69 1006.5
20260507214829 54 360 6.0 12.0 0.00 0.01 0.01 71 1006.5
20260507214341 54 360 9.0 12.0 0.00 0.01 0.01 67 1006.5
20260507213829 55 360 7.0 13.0 0.00 0.01 0.01 65 1006.5
20260507213321 56 360 7.0 13.0 0.00 0.01 0.01 60 1006.6
20260507212829 56 360 7.0 13.0 0.00 0.01 0.01 61 1006.5
20260507212331 56 360 9.0 14.0 0.00 0.01 0.01 61 1006.6
20260507211840 56 360 6.0 16.0 0.00 0.01 0.01 61 1006.5
20260507211350 55 360 9.0 16.0 0.00 0.01 0.01 57 1006.6
20260507210837 55 360 8.0 11.0 0.00 0.01 0.01 58 1006.6
20260507210325 54 360 8.0 15.0 0.00 0.01 0.01 63 1006.7
20260507205834 53 360 7.0 15.0 0.01 0.01 0.01 63 1006.6
20260507205324 52 360 6.0 11.0 0.01 0.01 0.01 71 1006.5
20260507204834 51 360 6.0 7.0 0.01 0.01 0.01 71 1007.0
20260507204324 51 360 2.0 5.0 0.01 0.01 0.01 72 1006.9
20260507203838 51 360 1.0 7.0 0.01 0.01 0.01 73 1006.9
20260507203325 50 360 2.0 7.0 0.01 0.01 0.01 73 1007.1
20260507202901 50 360 3.0 5.0 0.01 0.01 0.01 75 1007.3
20260507202327 50 360 1.0 6.0 0.01 0.01 0.01 74 1007.6
20260507201837 50 360 2.0 10.0 0.01 0.01 0.01 71 1007.6
20260507201325 50 360 5.0 10.0 0.01 0.01 0.01 69 1007.2
20260507200833 50 360 2.0 12.0 0.01 0.01 0.01 67 1007.3
20260507200405 50 360 3.0 12.0 0.01 0.01 0.01 67 1007.5
20260507195851 49 360 3.0 8.0 0.00 0.00 0.00 67 1007.8
20260507195339 50 360 3.0 7.0 0.00 0.00 0.00 64 1007.8
20260507194829 50 360 3.0 9.0 0.00 0.00 0.00 63 1007.9
20260507194339 50 360 3.0 9.0 0.00 0.00 0.00 63 1007.9
20260507193825 50 360 4.0 7.0 0.00 0.00 0.00 61 1007.9
20260507193334 50 360 4.0 8.0 0.00 0.00 0.00 62 1008.0
20260507192823 50 360 2.0 10.0 0.00 0.00 0.00 63 1008.1
20260507192333 50 360 3.0 12.0 0.00 0.00 0.00 62 1008.2
20260507191823 50 360 5.0 12.0 0.00 0.00 0.00 64 1008.2
20260507191359 51 360 4.0 15.0 0.00 0.00 0.00 64 1008.6
20260507190826 51 360 5.0 15.0 0.00 0.00 0.00 64 1008.3
20260507190335 51 360 4.0 7.0 0.00 0.00 0.00 61 1008.5
20260507185825 51 360 3.0 12.0 0.00 0.00 0.00 57 1009.0
20260507185334 52 360 5.0 12.0 0.00 0.00 0.00 55 1008.8
20260507184844 53 360 3.0 12.0 0.00 0.00 0.00 51 1008.2
20260507184400 53 360 4.0 10.0 0.00 0.00 0.00 51 1008.0
20260507183826 54 360 7.0 10.0 0.00 0.00 0.00 52 1008.2
20260507183331 54 360 5.0 9.0 0.00 0.00 0.00 51 1008.4
20260507182839 55 360 1.0 4.0 0.00 0.00 0.00 50 1008.7
20260507182329 56 201 1.0 13.0 0.00 0.00 0.00 47 1008.8
20260507181838 56 360 7.0 13.0 0.00 0.00 0.00 43 1008.8
20260507181328 55 360 7.0 10.0 0.00 0.00 0.00 44 1008.8
20260507180836 55 360 5.0 23.0 0.00 0.00 0.00 44 1008.9
20260507180323 55 360 13.0 23.0 0.00 0.00 0.00 43 1009.0
20260507175857 55 360 9.0 18.0 0.00 0.00 0.00 43 1009.1
20260507175327 55 150 11.0 21.0 0.00 0.00 0.00 42 1009.2
20260507174837 55 360 10.0 24.0 0.00 0.00 0.00 42 1009.2
20260507174325 55 360 13.0 24.0 0.00 0.00 0.00 41 1009.3
20260507173833 55 360 11.0 15.0 0.00 0.00 0.00 42 1009.3
20260507173322 54 360 7.0 17.0 0.00 0.00 0.00 41 1009.4
20260507172831 55 360 12.0 17.0 0.00 0.00 0.00 41 1009.5
20260507172322 55 360 12.0 17.0 0.00 0.00 0.00 41 1009.4
20260507171830 55 360 10.0 17.0 0.00 0.00 0.00 39 1009.5
20260507171340 55 360 7.0 12.0 0.00 0.00 0.00 41 1009.6
20260507170827 55 360 5.0 18.0 0.00 0.00 0.00 42 1009.6
20260507170338 55 360 12.0 18.0 0.00 0.00 0.00 40 1009.6
20260507165827 55 360 7.0 19.0 0.00 0.00 0.00 40 1009.6
20260507165335 55 360 13.0 19.0 0.00 0.00 0.00 40 1009.9
20260507164824 55 360 7.0 13.0 0.00 0.00 0.00 42 1009.8
20260507164329 55 360 8.0 13.0 0.00 0.00 0.00 42 1009.9
20260507163837 55 360 9.0 16.0 0.00 0.00 0.00 42 1010.1
20260507163325 55 360 10.0 18.0 0.00 0.00 0.00 41 1010.2
20260507162834 54 360 7.0 15.0 0.00 0.00 0.00 42 1010.2
20260507162342 53 360 6.0 14.0 0.00 0.00 0.00 44 1010.2
20260507161831 53 360 6.0 12.0 0.00 0.00 0.00 43 1010.2
20260507161341 53 360 8.0 12.0 0.00 0.00 0.00 44 1010.3
20260507160827 53 360 4.0 12.0 0.00 0.00 0.00 43 1010.5
20260507160337 52 360 6.0 12.0 0.00 0.00 0.00 43 1010.6
20260507155845 52 360 5.0 12.0 0.00 0.00 0.00 44 1010.7
20260507155354 52 360 6.0 12.0 0.00 0.00 0.00 44 1010.7
20260507154822 52 360 6.0 12.0 0.00 0.00 0.00 44 1010.9
20260507154332 51 360 7.0 12.0 0.00 0.00 0.00 43 1010.9
20260507153838 51 360 2.0 14.0 0.00 0.00 0.00 43 1010.9
20260507153325 51 360 6.0 13.0 0.00 0.00 0.00 46 1011.0
20260507152859 51 360 9.0 13.0 0.00 0.00 0.00 45 1011.1
20260507152345 50 360 4.0 9.0 0.00 0.00 0.00 47 1011.3
20260507151830 50 360 6.0 11.0 0.00 0.00 0.00 46 1011.4
20260507151339 50 360 6.0 11.0 0.00 0.00 0.00 46 1011.4
20260507150825 50 360 7.0 11.0 0.00 0.00 0.00 47 1011.6
20260507150334 49 360 3.0 9.0 0.00 0.00 0.00 50 1011.7
20260507145823 48 360 4.0 9.0 0.00 0.00 0.00 50 1011.7
20260507145332 48 360 4.0 9.0 0.00 0.00 0.00 51 1011.8
20260507144841 47 360 4.0 9.0 0.00 0.00 0.00 54 1011.9
20260507144329 47 360 5.0 8.0 0.00 0.00 0.00 52 1012.1
20260507143835 47 360 5.0 11.0 0.00 0.00 0.00 52 1012.1
20260507143325 47 360 10.0 12.0 0.00 0.00 0.00 52 1012.1
20260507142830 46 360 4.0 12.0 0.00 0.00 0.00 52 1012.0
20260507142337 47 360 6.0 11.0 0.00 0.00 0.00 53 1012.1
20260507141825 46 360 6.0 9.0 0.00 0.00 0.00 53 1012.1
20260507141336 46 360 6.0 9.0 0.00 0.00 0.00 53 1012.1
20260507140823 46 360 6.0 9.0 0.00 0.00 0.00 53 1012.2
20260507140331 46 360 5.0 10.0 0.00 0.00 0.00 54 1012.2
20260507135839 45 360 5.0 10.0 0.00 0.00 0.00 55 1012.3
20260507135328 45 211 4.0 7.0 0.00 0.00 0.00 58 1012.2
20260507134837 44 360 4.0 8.0 0.00 0.00 0.00 58 1012.3
20260507134327 44 360 5.0 10.0 0.00 0.00 0.00 57 1012.5
20260507133833 44 360 5.0 10.0 0.00 0.00 0.00 60 1012.6
20260507133321 44 360 6.0 8.0 0.00 0.00 0.00 61 1012.7
20260507132826 43 360 4.0 10.0 0.00 0.00 0.00 61 1012.7
20260507132334 43 360 6.0 10.0 0.00 0.00 0.00 62 1012.7
20260507131836 43 360 5.0 9.0 0.00 0.00 0.00 62 1012.6
20260507131327 43 360 6.0 9.0 0.00 0.00 0.00 62 1012.7
20260507130836 43 204 6.0 9.0 0.00 0.00 0.00 62 1012.6
20260507130327 43 360 3.0 9.0 0.00 0.00 0.00 63 1012.6
20260507125837 43 360 4.0 8.0 0.00 0.00 0.00 62 1012.6
20260507125325 43 223 2.0 7.0 0.00 0.00 0.00 65 1012.6
20260507124833 43 360 2.0 7.0 0.00 0.00 0.00 66 1012.5
20260507124324 42 360 2.0 7.0 0.00 0.00 0.00 69 1012.3
20260507123832 41 360 2.0 6.0 0.00 0.00 0.00 67 1012.2
20260507123321 41 360 3.0 7.0 0.00 0.00 0.00 68 1012.2
20260507122831 40 360 4.0 7.0 0.00 0.00 0.00 71 1012.2
20260507122322 40 360 3.0 6.0 0.00 0.00 0.00 76 1012.3
20260507121830 39 360 4.0 6.0 0.00 0.00 0.00 77 1012.2
20260507121340 39 215 2.0 5.0 0.00 0.00 0.00 78 1012.3
20260507120848 38 360 2.0 5.0 0.00 0.00 0.00 79 1012.3
20260507120356 38 360 2.0 5.0 0.00 0.00 0.00 80 1012.2
20260507115845 37 360 3.0 5.0 0.00 0.00 0.00 81 1012.2
20260507115328 37 360 3.0 6.0 0.00 0.00 0.00 81 1012.2
20260507114835 36 360 4.0 6.0 0.00 0.00 0.00 81 1012.2
20260507114346 36 360 3.0 6.0 0.00 0.00 0.00 82 1012.2
20260507113853 36 360 3.0 7.0 0.00 0.00 0.00 82 1012.3
20260507113322 36 360 5.0 7.0 0.00 0.00 0.00 82 1012.2
20260507112833 35 360 3.0 5.0 0.00 0.00 0.00 82 1012.3
20260507112324 35 360 2.0 6.0 0.00 0.00 0.00 82 1011.9
20260507111835 35 360 4.0 6.0 0.00 0.00 0.00 82 1012.0
20260507111342 35 360 4.0 6.0 0.00 0.00 0.00 82 1012.2
20260507110830 35 360 4.0 6.0 0.00 0.00 0.00 82 1012.1
20260507110341 35 360 4.0 6.0 0.00 0.00 0.00 81 1012.0
20260507105850 35 360 5.0 6.0 0.00 0.00 0.00 80 1011.9
20260507105338 35 360 3.0 6.0 0.00 0.00 0.00 79 1011.8
20260507104847 35 360 4.0 5.0 0.00 0.00 0.00 79 1011.9
20260507104359 35 360 3.0 5.0 0.00 0.00 0.00 78 1011.8
20260507103845 35 360 4.0 5.0 0.00 0.00 0.00 78 1011.8
20260507103355 35 360 3.0 6.0 0.00 0.00 0.00 77 1011.7
20260507102845 35 213 4.0 6.0 0.00 0.00 0.00 77 1011.7
20260507102334 35 360 4.0 6.0 0.00 0.00 0.00 76 1011.7
20260507101842 36 360 4.0 6.0 0.00 0.00 0.00 76 1011.8
20260507101334 36 360 3.0 5.0 0.00 0.00 0.00 76 1011.8
20260507100821 36 360 3.0 5.0 0.00 0.00 0.00 76 1011.7
20260507100332 35 214 3.0 4.0 0.00 0.00 0.00 76 1011.7
20260507095822 35 360 2.0 3.0 0.00 0.00 0.00 77 1011.7
20260507095331 35 360 2.0 4.0 0.00 0.00 0.00 77 1011.8
20260507094908 36 360 3.0 4.0 0.00 0.00 0.00 77 1011.8
20260507094356 36 360 3.0 5.0 0.00 0.00 0.00 76 1011.9
20260507093824 36 214 2.0 5.0 0.00 0.00 0.00 76 1011.9
20260507093333 36 360 2.0 4.0 0.00 0.00 0.00 76 1011.8
20260507092823 36 360 2.0 3.0 0.00 0.00 0.00 76 1011.8
20260507092355 36 213 2.0 4.0 0.00 0.00 0.00 75 1011.9
20260507091824 36 360 3.0 5.0 0.00 0.00 0.00 75 1011.9
20260507091335 36 360 3.0 5.0 0.00 0.00 0.00 75 1011.9
20260507090823 36 213 3.0 4.0 0.00 0.00 0.00 74 1011.9
20260507090333 36 360 3.0 5.0 0.00 0.00 0.00 74 1012.0
20260507085824 36 216 4.0 5.0 0.00 0.00 0.00 75 1011.9
20260507085332 36 360 4.0 5.0 0.00 0.00 0.00 75 1012.0
20260507084821 36 221 4.0 5.0 0.00 0.00 0.00 75 1012.0
20260507084332 37 360 3.0 5.0 0.00 0.00 0.00 75 1012.0
20260507083839 37 225 4.0 5.0 0.00 0.00 0.00 75 1011.9
20260507083328 37 360 3.0 5.0 0.00 0.00 0.00 74 1011.7
20260507082837 37 232 3.0 5.0 0.00 0.00 0.00 74 1011.9